weather.gov     
National Weather Service

Terminal Aerodrome Forecast
NWS Homepage
This page is being discontinued on March 12, 2014.
The same data is available at this site. Please update your bookmarks.
Thank you, and we apologize for the inconvenience.
Please send an email to SR-SRH.Webmaster@noaa.gov with any concerns.


Current Version
Previous Version:    01  02  03  04  05  06  07  08  09  10  11  12  13  14  15  16  17  18  19  20  21  22  23  24  25  26  27  28  29  30  
   31  32  33  34  35  36  37  38  39  40  41  42  43  44  45  46  47  48  49  
[Printable]
144
FTUS43 KDTX 020500
TAFPTK
TAF
KPTK 020539Z 0206/0306 22005KT P6SM FEW045 BKN200
     FM020800 23005KT 4SM BR SCT012 BKN060
      TEMPO 0209/0212 3SM -SHRA BR BKN012
     FM021300 25007KT P6SM SCT018 BKN040
     FM021700 26012KT P6SM SCT045
     FM030000 28005KT P6SM SCT060=


U.S. Dept. of Commerce
NOAA National Weather Service
1325 East West Highway
Silver Spring, MD 20910
E-mail: w-nws.webmaster@noaa.gov
Page last modified: May 16, 2007
NATIONAL WEATHER SERVICE: for Safety, for Work, for Fun - FOR LIFE